Weather Service Report


175 
ASUS43 KLMK 210802
RWRKY 
KENTUCKY REGIONAL WEATHER ROUNDUP
NATIONAL WEATHER SERVICE LOUISVILLE KY
300 AM EST TUE FEB 21 2017

NOTE "FAIR" INDICATES FEW OR NO CLOUDS BELOW 12,000 FEET
WITH NO SIGNIFICANT WEATHER AND/OR OBSTRUCTIONS TO VISIBILITY.

KYZ001>023-026-027-061>063-070>075-210900-
WESTERN AND SOUTH CENTRAL KENTUCKY
  
CITY           SKY/WX    TMP DP  RH WIND       PRES   REMARKS
PADUCAH        CLOUDY    62  47  57 SE8       29.92F                  
HENDERSON      CLOUDY    55  45  67 CALM      29.96R                  
OWENSBORO      PTCLDY    56  46  69 S3        29.98R                  
HOPKINSVILLE   PTCLDY    60  46  60 S6        29.97S                  
BOWLING GREEN  MOCLDY    60  44  55 SE3       30.00F                  
GLASGOW        NOT AVBL                                               
$$

KYZ024-025-028>034-038-045-046-053-210900-
NORTH CENTRAL KENTUCKY
  
CITY           SKY/WX    TMP DP  RH WIND       PRES   REMARKS
LOUISVILLE/SDF CLOUDY    57  41  55 SE5       30.00S                  
LOUISVILLE/LOU CLOUDY    59  42  53 CALM      30.00F                  
FORT KNOX      CLOUDY    56  44  62 SE6       29.98S                  
$$

KYZ035>037-039>044-047>052-055>060-089>105-210900-
NORTHEAST KENTUCKY
  
CITY           SKY/WX    TMP DP  RH WIND       PRES   REMARKS
LEXINGTON      MOCLDY    57  40  52 SE12      30.04F                  
COVINGTON      CLOUDY    53  40  61 SE6       30.02F                  
FRANKFORT      CLOUDY    54  40  59 SE5       30.02F                  
$$

KYZ054-064>069-076>088-106>120-210900-
SOUTHEAST KENTUCKY
  
CITY           SKY/WX    TMP DP  RH WIND       PRES   REMARKS
JACKSON        MOCLDY    54  37  52 SW5       30.09R                  
LONDON         CLOUDY    48  41  76 CALM      30.09S                  
SOMERSET       MOCLDY    52  41  66 CALM      30.08F                  
MIDDLESBORO    PTCLDY    42  41  97 CALM      30.12F                  
MONTICELLO     NOT AVBL                                               
$$

  

Return to Home page


Western Regional Climate Center, wrcc@dri.edu